Torna al catalogo

DELTA 1 DEB

AttivoSSO
NORAD 12169·DEBRIS·🇺🇸 United States

Lanciato Mar 5, 1978 da Vandenberg Space Force Base

Loading…

Prossimi Passaggi (prossime 24 ore)

TLE

AggiornatoSource: Space-Track

Epoca: Sep 14, 2026, 00:45 UTC

1 12169U 78026J   26257.03178498  .00000323  00000-0  12838-3 0  9997
2 12169  98.7005 283.1407 0067884 179.4367 210.6161 14.33961278373032

Traccia DELTA 1 DEB in tempo reale con AllMySat

Download on the App Store